Вернуться в каталог

STARLINK-35117

АктивенСвязьVLEO
NORAD 65632·PAYLOAD·🇺🇸 United States

Запущен Sep 18, 2025 с Cape Canaveral Space Force Station

Loading…

Ближайшие Пролёты (ближайшие 24 часа)

TLE

СвежийSource: CelesTrak SupGP

Эпоха: Sep 14, 2026, 23:03 UTC

1 65632C 25210L   26257.96090278 -.00090846  00000+0 -26841-2 0  2573
2 65632  53.1598 147.6749 0001304  88.9195 250.2511 15.34435898    18

Отслеживайте STARLINK-35117 в реальном времени с AllMySat

Download on the App Store